Weather History for Fort Myers, FL

Change the Weather History Date:

Saturday, August 18, 2012

  Actual Average Record
Temperature  
Mean Temperature 84 °F 83 °F  
Max Temperature 90 °F 92 °F 98 °F (1985)
Min Temperature 78 °F 75 °F 70 °F (1956)
Degree Days  
Heating Degree Days 0 0  
Month to date heating degree days 0 0  
Since 1 June heating degree days 0 0  
Since 1 July heating degree days 0 0  
Cooling Degree Days 19 18  
Month to date cooling degree days 355 324  
Year to date cooling degree days 2904 2479  
Since 1 June cooling degree days 1466 1413  
Growing Degree Days 34 (Base 50)    
Moisture  
Dew Point 74 °F    
Average Humidity 76    
Maximum Humidity 91    
Minimum Humidity 61    
Precipitation  
Precipitation 0.07 in 0.33 in 2.94 in (1922)
Month to date precipitation 4.24 5.79  
Year to date precipitation 31.36 36.72  
Sea Level Pressure  
Sea Level Pressure 29.98 in    
Wind  
Wind Speed 4 mph (SW)    
Max Wind Speed 15 mph    
Max Gust Speed 17 mph    
Visibility 10 miles    
Events Rain , Thunderstorm    
T = Trace of Precipitation, MM = Missing Value Source: NWS Daily Summary

Daily Weather History Graph

Daily Weather History Graph

Search for Another Location

Airport:

Trip Planner

Search our weather history database for the weather conditions in past years. The results will help you decide how hot, cold, wet, or windy it might be!

Date:

Astronomy

Aug. 18, 2012 Rise Set
Actual Time 7:01 AM EDT 8:00 PM EDT
Civil Twilight 6:36 AM EDT 8:24 PM EDT
Nautical Twilight 6:08 AM EDT 8:53 PM EDT
Astronomical Twilight 5:39 AM EDT 9:22 PM EDT
Moon 7:55 AM EDT (8/18) 8:32 PM EDT (8/18)
Length of Visible Light 13h 47m
Length of Day
12h 59m
New Moon, 1% of the Moon is Illuminated
Aug 18
New Moon
Aug 24
First Quarter
Aug 31
Full
Sep 8
Last Quarter
Sep 15
New

Hourly Weather History & Observations

Time (EDT) Temp. Heat Index Dew Point Humidity Pressure Visibility Wind Dir Wind Speed Gust Speed Precip Events Conditions
12:53 AM 80.1 °F 84.5 °F 73.9 °F 81% 29.99 in 10.0 mi SSE 4.6 mph - N/A   Mostly Cloudy
1:53 AM 80.1 °F 84.5 °F 73.9 °F 81% 29.98 in 10.0 mi SSE 4.6 mph - N/A   Clear
2:53 AM 79.0 °F - 73.9 °F 84% 29.96 in 10.0 mi SSE 4.6 mph - N/A   Clear
3:53 AM 78.1 °F - 73.0 °F 84% 29.96 in 10.0 mi Calm Calm - N/A   Clear
4:53 AM 79.0 °F - 73.0 °F 82% 29.96 in 10.0 mi Calm Calm - N/A   Clear
5:53 AM 78.1 °F - 73.9 °F 87% 29.95 in 10.0 mi SSE 3.5 mph - N/A   Clear
6:53 AM 78.1 °F - 73.9 °F 87% 29.96 in 10.0 mi Calm Calm - N/A   Clear
7:53 AM 79.0 °F - 75.0 °F 88% 29.98 in 10.0 mi SSE 5.8 mph - N/A   Partly Cloudy
8:53 AM 82.9 °F 90.8 °F 75.9 °F 79% 30.00 in 10.0 mi South 5.8 mph - N/A   Mostly Cloudy
9:48 AM 78.8 °F - 73.4 °F 83% 30.00 in 3.0 mi SSW 9.2 mph - 0.04 in Rain , Thunderstorm Light Rain
9:53 AM 79.0 °F - 73.0 °F 82% 30.01 in 5.0 mi South 6.9 mph - 0.05 in Rain , Thunderstorm Light Rain
10:44 AM 80.6 °F 85.4 °F 73.4 °F 79% 30.00 in 10.0 mi Calm Calm - 0.02 in   Mostly Cloudy
10:53 AM 80.1 °F 84.5 °F 73.9 °F 81% 30.01 in 10.0 mi Calm Calm - 0.02 in Rain Light Rain
11:53 AM 82.9 °F 91.8 °F 77.0 °F 82% 30.01 in 10.0 mi Calm Calm - 0.00 in   Clear
12:19 PM 84.2 °F 92.3 °F 75.2 °F 74% 30.00 in 10.0 mi WNW 5.8 mph - N/A Thunderstorm Partly Cloudy
12:34 PM 84.2 °F 92.3 °F 75.2 °F 74% 30.00 in 10.0 mi West 4.6 mph - N/A   Partly Cloudy
12:53 PM 84.9 °F 93.3 °F 75.0 °F 72% 30.00 in 10.0 mi WSW 5.8 mph - N/A   Clear
1:49 PM 86.0 °F 93.4 °F 73.4 °F 66% 29.98 in 10.0 mi WSW 10.4 mph - N/A Thunderstorm Partly Cloudy
1:53 PM 86.0 °F 93.8 °F 73.9 °F 67% 29.99 in 10.0 mi WSW 10.4 mph - N/A Thunderstorm Scattered Clouds
2:01 PM 86.0 °F 95.1 °F 75.2 °F 70% 29.97 in 10.0 mi West 6.9 mph - N/A   Scattered Clouds
2:53 PM 89.1 °F 96.0 °F 72.0 °F 57% 29.97 in 10.0 mi West 10.4 mph - N/A   Mostly Cloudy
3:53 PM 88.0 °F 97.5 °F 75.0 °F 65% 29.95 in 10.0 mi Variable 5.8 mph - N/A   Clear
4:53 PM 84.9 °F 91.4 °F 73.0 °F 67% 29.93 in 10.0 mi West 9.2 mph - 0.00 in Rain Light Rain
5:53 PM 84.9 °F 91.4 °F 73.0 °F 67% 29.92 in 10.0 mi WSW 6.9 mph - 0.00 in   Clear
6:53 PM 86.0 °F 91.5 °F 71.1 °F 61% 29.92 in 10.0 mi West 5.8 mph - N/A   Clear
7:53 PM 84.9 °F 91.4 °F 73.0 °F 67% 29.94 in 10.0 mi West 3.5 mph - N/A   Clear
8:53 PM 84.0 °F 91.2 °F 73.9 °F 72% 29.96 in 10.0 mi Calm Calm - N/A   Clear
9:53 PM 82.0 °F 87.9 °F 73.9 °F 76% 29.98 in 10.0 mi Calm Calm - N/A   Scattered Clouds
10:53 PM 81.0 °F 87.3 °F 75.9 °F 85% 30.00 in 10.0 mi Calm Calm - N/A   Clear
11:53 PM 80.1 °F 85.1 °F 75.0 °F 85% 29.99 in 10.0 mi SE 3.5 mph - N/A   Clear